Johnstown, PA

6:19 PM EST on January 16, 2017 (GMT -0500)
Johnstown-Cambria County

Weather History for KJST - July, 2013

Change the Weather History Date:

Wednesday, July 24, 2013

  Actual Average Record
Temperature  
Mean Temperature 61 °F 70 °F  
Max Temperature 67 °F 79 °F 96 °F (1952)
Min Temperature 54 °F 60 °F 48 °F (1947)
Degree Days  
Heating Degree Days 4 0  
Month to date heating degree days 6 8  
Since 1 June heating degree days 69 87  
Since 1 July heating degree days 6 8  
Cooling Degree Days 0 5  
Month to date cooling degree days 161 115  
Year to date cooling degree days 271 208  
Since 1 June cooling degree days 230 190  
Growing Degree Days 12 (Base 50)    
Moisture  
Dew Point 54 °F    
Average Humidity 77    
Maximum Humidity 97    
Minimum Humidity 56    
Precipitation  
Precipitation 0.01 in 0.13 in 1.52 in (1896)
Month to date precipitation 2.46 2.90  
Year to date precipitation 19.23 19.54  
Sea Level Pressure  
Sea Level Pressure 29.87 in    
Wind  
Wind Speed 8 mph (NW)    
Max Wind Speed 15 mph    
Max Gust Speed 20 mph    
Visibility 8 miles    
Events Fog , Rain    
T = Trace of Precipitation, MM = Missing Value Source: NWS Daily Summary

Daily Weather History Graph

Daily Weather History Graph

Search for Another Location

Airport or City:

Trip Planner

Search our weather history database for the weather conditions in past years. The results will help you decide how hot, cold, wet, or windy it might be!

Date:

Astronomy

Jul. 24, 2013 Rise Set
Actual Time 6:05 AM EDT 8:37 PM EDT
Civil Twilight 5:34 AM EDT 9:08 PM EDT
Nautical Twilight 4:55 AM EDT 9:47 PM EDT
Astronomical Twilight 4:12 AM EDT 10:30 PM EDT
Moon 9:41 PM EDT (7/24) 8:24 AM EDT (7/24)
Length of Visible Light 15h 33m
Length of Day
14h 31m
Waning Gibbous, 95% of the Moon is Illuminated
Jul 24
Waning Gibbous
Jul 29
Last Quarter
Aug 6
New
Aug 14
First Quarter
Aug 20
Full

Hourly Weather History & Observations

Time (EDT) Temp. Dew Point Humidity Pressure Visibility Wind Dir Wind Speed Gust Speed Precip Events Conditions
12:54 AM 60.1 °F 57.0 °F 90% 29.78 in 10.0 mi South 3.5 mph - N/A   Clear
1:54 AM 63.0 °F 55.0 °F 75% 29.77 in 10.0 mi SW 5.8 mph - N/A   Scattered Clouds
2:29 AM 62.6 °F 57.2 °F 82% 29.81 in 10.0 mi SW 5.8 mph - N/A   Overcast
2:54 AM 62.1 °F 57.0 °F 84% 29.77 in 10.0 mi SW 5.8 mph - N/A   Overcast
3:28 AM 62.6 °F 59.0 °F 88% 29.81 in 10.0 mi WSW 6.9 mph - N/A   Overcast
3:54 AM 62.1 °F 60.1 °F 93% 29.75 in 3.0 mi West 4.6 mph - 0.00 in   Overcast
4:00 AM 62.6 °F 60.8 °F 94% 29.80 in 1.8 mi West 5.8 mph - 0.00 in Rain Light Rain
4:15 AM 62.6 °F 60.8 °F 94% 29.79 in 0.8 mi Variable 3.5 mph - 0.00 in   Mist
4:41 AM 60.8 °F 60.8 °F 100% 29.79 in 0.2 mi WNW 8.1 mph - 0.00 in Fog Fog
4:54 AM 62.1 °F 61.0 °F 96% 29.76 in 0.2 mi NW 12.7 mph 17.3 mph 0.01 in Fog Fog
5:42 AM 60.8 °F 59.0 °F 94% 29.82 in 0.5 mi NNW 12.7 mph 19.6 mph N/A Fog Fog
5:52 AM 60.8 °F 59.0 °F 94% 29.83 in 2.0 mi NNW 8.1 mph 16.1 mph N/A   Overcast
5:54 AM 60.1 °F 59.0 °F 96% 29.79 in 1.8 mi NNW 10.4 mph 16.1 mph N/A   Overcast
6:07 AM 60.8 °F 59.0 °F 94% 29.83 in 0.2 mi NNW 11.5 mph - N/A Fog Fog
6:21 AM 59.0 °F 57.2 °F 94% 29.83 in 0.5 mi NNW 6.9 mph - N/A Fog Fog
6:31 AM 57.2 °F 57.2 °F 100% 29.84 in 2.5 mi NNW 12.7 mph - N/A   Overcast
6:38 AM 57.2 °F 57.2 °F 100% 29.84 in 8.0 mi North 10.4 mph - N/A   Overcast
6:44 AM 57.2 °F 55.4 °F 94% 29.85 in 10.0 mi North 8.1 mph - N/A   Overcast
6:54 AM 57.0 °F 55.9 °F 96% 29.82 in 10.0 mi NNW 8.1 mph - N/A   Overcast
7:37 AM 57.2 °F 51.8 °F 82% 29.87 in 10.0 mi NNW 11.5 mph - N/A   Overcast
7:54 AM 57.0 °F 52.0 °F 83% 29.86 in 10.0 mi NNW 9.2 mph - N/A   Mostly Cloudy
8:12 AM 57.2 °F 53.6 °F 88% 29.89 in 10.0 mi NNW 11.5 mph - N/A   Mostly Cloudy
8:52 AM 59.0 °F 53.6 °F 82% 29.90 in 10.0 mi NW 10.4 mph - N/A   Scattered Clouds
8:54 AM 59.0 °F 52.0 °F 78% 29.88 in 10.0 mi NNW 10.4 mph - N/A   Mostly Cloudy
9:54 AM 60.1 °F 51.1 °F 72% 29.89 in 10.0 mi North 6.9 mph - N/A   Scattered Clouds
10:03 AM 60.8 °F 51.8 °F 72% 29.92 in 10.0 mi NW 13.8 mph 18.4 mph N/A   Mostly Cloudy
10:54 AM 63.0 °F 51.1 °F 65% 29.91 in 10.0 mi NW 10.4 mph - N/A   Mostly Cloudy
11:11 AM 62.6 °F 50.0 °F 63% 29.93 in 10.0 mi NNW 10.4 mph - N/A   Scattered Clouds
11:18 AM 62.6 °F 50.0 °F 63% 29.93 in 10.0 mi NNW 10.4 mph 16.1 mph N/A   Mostly Cloudy
11:54 AM 64.9 °F 51.1 °F 61% 29.91 in 10.0 mi NNW 6.9 mph - N/A   Scattered Clouds
12:54 PM 64.9 °F 50.0 °F 58% 29.92 in 10.0 mi NNW 11.5 mph - N/A   Mostly Cloudy
1:54 PM 66.9 °F 51.1 °F 57% 29.91 in 10.0 mi Variable 6.9 mph - N/A   Scattered Clouds
2:54 PM 64.9 °F 50.0 °F 58% 29.92 in 10.0 mi WNW 6.9 mph - N/A   Overcast
3:54 PM 66.9 °F 50.0 °F 54% 29.92 in 10.0 mi NNW 6.9 mph - N/A   Overcast
4:54 PM 66.9 °F 51.1 °F 57% 29.93 in 10.0 mi NW 10.4 mph - N/A   Mostly Cloudy
5:54 PM 64.9 °F 50.0 °F 58% 29.94 in 10.0 mi WNW 9.2 mph - N/A   Mostly Cloudy
6:54 PM 64.9 °F 48.9 °F 56% 29.94 in 10.0 mi NNW 9.2 mph - N/A   Clear
7:54 PM 63.0 °F 50.0 °F 63% 29.96 in 10.0 mi NNW 8.1 mph - N/A   Clear
8:54 PM 60.1 °F 50.0 °F 69% 29.98 in 10.0 mi NW 8.1 mph - N/A   Clear
9:54 PM 59.0 °F 48.9 °F 69% 29.99 in 10.0 mi NW 8.1 mph - N/A   Clear
10:54 PM 57.0 °F 48.9 °F 74% 30.00 in 10.0 mi North 3.5 mph - N/A   Clear
11:54 PM 55.9 °F 50.0 °F 80% 30.01 in 10.0 mi NE 3.5 mph - N/A   Overcast